STARLINK-34314 (64146 NORAD) Tracking and Keplerian Element Data

This shows tracking and keplerian element data for the satellite.

Feedback or suggestion? Click here.




ElementValue
Catalog64146
NameSTARLINK-34314
Epoch Orbit3133
Epoch Day354.1182488
Epoch Year2025
RAAN43.0529
Inclination97.6034
Eccentricity0.0001495
Argument of Perigee93.1318
Mean Anonmoly267.008
Mean Motion15.05648519
Decay Rate3.705E-05
L11 64146U 25112A 25354.11824880 .00003705 00000+0 26085-3 0 9991
L22 64146 97.6034 43.0529 0001495 93.1318 267.0080 15.05648519 31336



Live tracking and technical data element details for STARLINK-34314 (NORAD 64146). STARLINK-34314 can be tracked NOW for your location showing map with azimuth and elevation plus other details from your city location.







IsCatalogInMostPopularTable: catalog: 64146, numindb: 6
Update: records affected: 1



GetName: 64146 STARLINK-34314

Hit Count: updated at: Sat, 11 Apr 2026 21:22:25 GMT